Accueil
METAR-TAF:

METAR-TAF

Aéroports :

Laval, France

Entrammes

latitude: 48-01-56N, longitude: 000-44-34W, altitude: 101 m

Observation

Le bulletin a été fait il y a 19 minutes, à 03:30 UTC
Vent 16 kt de sud/sud-est, variant entre est/sud-est et sud
Température 10°C
Humidité 93%
Pression 966 hPa
Visibilité: 9000 m
pluie faible

METAR: LFOV 110330Z AUTO 16016KT 120V180 9000 -RA BKN009/// BKN014/// OVC019/// ///TCU 10/09 Q0966

Heure: 04:49 (03:49 UTC)


TAF: absent

Observations et prévisions météorologiques de plus de 4000 aéroports (messages METAR et TAF).

Les stations disponibles sont représentées par des disques jaunes et rouges sur la carte.

Passer la souris dessus pour voir le nom de la station.

Cliquer dessus pour voir les observations et prévisions météorologiques.

Pour changer de carte: cliquez sur les boutons verts avec une croix noire pour zoomer, sur le bouton vert avec un tiret pour effectuer un zoom arrière, ou sur les flèches vertes pour les cartes adjacentes.


METAR-TAF: